CST,Max TemperatureF,Mean TemperatureF,Min TemperatureF,Max Dew PointF,MeanDew PointF,Min DewpointF,Max Humidity, Mean Humidity, Min Humidity, Max Sea Level PressureIn, Mean Sea Level PressureIn, Min Sea Level PressureIn, Max VisibilityMiles, Mean VisibilityMiles, Min VisibilityMiles, Max Wind SpeedMPH, Mean Wind SpeedMPH, Max Gust SpeedMPH,PrecipitationIn, CloudCover, Events, WindDirDegrees
2013-1-1,21,14,8,19,10,3,93,76,55,30.36,30.28,30.17,10,10,4,12,7,,0.00,4,Snow,344
2013-1-2,30,18,7,24,15,4,92,81,64,30.29,30.23,30.17,10,9,7,10,4,,0.00,3,,225
2013-1-3,34,25,16,24,21,14,92,83,64,30.46,30.40,30.30,10,10,8,10,5,,0.00,4,,285
2013-1-4,42,28,15,28,22,13,92,77,58,30.42,30.33,30.24,10,10,7,15,8,22,0.00,0,,197
2013-1-5,46,37,28,31,27,22,82,71,56,30.23,30.17,30.07,10,10,10,17,11,25,0.00,4,,231
2013-1-6,43,31,19,22,19,15,85,67,40,30.42,30.33,30.23,10,10,10,15,9,,0.00,0,,266
2013-1-7,48,38,28,27,23,20,72,57,39,30.26,30.14,30.02,10,10,10,22,12,30,0.00,0,,180
2013-1-8,55,44,33,32,30,27,82,64,42,30.22,30.04,29.96,10,10,10,21,12,26,0.00,0,,209
2013-1-9,53,38,23,33,28,21,92,72,47,30.44,30.36,30.23,10,10,10,10,3,,0.00,0,,111
2013-1-10,45,42,39,45,41,28,100,94,58,30.30,29.93,29.73,10,4,0,13,8,,0.31,8,Fog-Rain,116
2013-1-11,59,52,44,47,43,19,100,82,27,29.75,29.66,29.54,10,8,0,24,12,32,0.00,5,Fog,192
2013-1-12,42,30,19,33,17,9,93,68,47,30.15,30.03,29.79,10,8,1,21,15,29,0.00,6,Snow,335
2013-1-13,27,20,12,8,6,4,80,64,39,30.40,30.28,30.14,10,10,10,16,11,23,0.00,1,,317
2013-1-14,32,20,8,12,8,4,84,66,37,30.55,30.46,30.41,10,10,10,8,3,,0.00,0,,339
2013-1-15,34,23,12,14,11,8,84,65,38,30.41,30.32,30.20,10,10,10,8,1,,0.00,2,,177
2013-1-16,48,33,18,29,21,11,88,66,44,30.23,30.12,30.05,10,10,10,10,8,,0.00,1,,239
2013-1-17,50,36,23,31,27,22,96,77,48,30.51,30.42,30.27,10,10,10,10,7,,0.00,0,,311
2013-1-18,59,46,33,31,29,27,79,57,32,30.39,30.19,30.03,10,10,10,30,15,40,0.00,0,,199
2013-1-19,63,50,36,30,28,24,76,52,24,30.27,30.08,29.96,10,10,10,18,12,28,0.00,0,,278
2013-1-20,37,28,18,27,12,7,79,53,33,30.44,30.35,30.30,10,10,10,13,7,17,0.00,0,,19
2013-1-21,23,16,10,11,7,4,84,64,46,30.48,30.44,30.40,10,10,8,9,5,,0.00,5,,12
2013-1-22,33,22,12,11,8,3,71,58,38,30.42,30.34,30.27,10,10,10,10,6,,0.00,0,,92
2013-1-23,48,30,12,23,16,8,81,61,36,30.45,30.28,30.19,10,10,10,16,4,22,0.00,0,,28
2013-1-24,26,18,10,13,5,1,71,51,37,30.51,30.36,30.20,10,10,10,14,9,17,0.00,3,,74
2013-1-25,48,33,18,20,16,10,72,53,32,30.27,30.22,30.15,10,10,9,9,3,,0.00,1,,274
2013-1-26,57,42,27,31,23,20,78,52,24,30.28,30.19,30.05,10,10,6,15,6,22,0.00,1,Rain,145
2013-1-27,62,50,39,54,45,34,96,85,67,30.04,29.84,29.72,10,8,2,23,13,30,0.05,7,Rain,177
2013-1-28,75,62,48,61,51,43,88,73,44,29.83,29.75,29.60,10,10,8,25,10,32,0.00,5,,175
2013-1-29,68,50,33,61,42,33,100,91,77,29.68,29.58,29.52,10,7,2,23,14,39,0.10,7,Rain,342
2013-1-30,33,26,15,32,22,11,100,83,63,30.01,29.77,29.55,10,6,1,28,17,40,0.03,7,Snow,317
2013-1-31,21,14,8,18,9,1,89,72,54,30.51,30.23,29.98,10,10,8,24,8,32,0.00,3,Snow,320